SIC YBAF-YBAF

Flight info

Callsign SIC
Flight time 0h 5m
Altitude 5000
Route YBAF CG YBAF
Aircraft L39/L-V/N

Departure

Time 2026-04-18 10:20
Airport Brisbane Archerfield Airport (YBAF)

Arrival

Time 2026-04-18 10:25
Airport Brisbane Archerfield Airport (YBAF)
Time Latitude Longitude Altitude Speed Heading
2026-04-18 10:04 -27.57621 153.00799 55 ft 0 kts 14°
2026-04-18 10:10 -27.57643 153.00898 96 ft 0 kts 14°
2026-04-18 10:10 -27.57662 153.01004 73 ft 0 kts 11°
2026-04-18 10:10 -27.57663 153.01008 73 ft 0 kts 11°
2026-04-18 10:12 -27.57658 153.01009 73 ft 3 kts
2026-04-18 10:12 -27.57649 153.01036 71 ft 5 kts 99°
2026-04-18 10:12 -27.57655 153.01079 71 ft 7 kts 99°
2026-04-18 10:13 -27.57620 153.01104 67 ft 10 kts
2026-04-18 10:13 -27.57539 153.01120 67 ft 8 kts
2026-04-18 10:13 -27.57510 153.01078 66 ft 8 kts 292°
2026-04-18 10:13 -27.57477 153.01073 66 ft 2 kts 16°
2026-04-18 10:14 -27.57466 153.01077 66 ft 8 kts 17°
2026-04-18 10:14 -27.57385 153.01124 63 ft 16 kts
2026-04-18 10:14 -27.57339 153.01100 61 ft 9 kts 281°
2026-04-18 10:14 -27.57318 153.01024 63 ft 12 kts 288°
2026-04-18 10:15 -27.57300 153.00963 64 ft 13 kts 288°
2026-04-18 10:15 -27.57271 153.00863 62 ft 14 kts 288°
2026-04-18 10:15 -27.57240 153.00749 60 ft 16 kts 289°
2026-04-18 10:15 -27.57203 153.00618 57 ft 19 kts 288°
2026-04-18 10:16 -27.57160 153.00464 49 ft 23 kts 287°
2026-04-18 10:16 -27.57111 153.00293 50 ft 23 kts 294°
2026-04-18 10:16 -27.57057 153.00122 49 ft 23 kts 287°
2026-04-18 10:16 -27.57010 152.99943 45 ft 25 kts 287°
2026-04-18 10:17 -27.56964 152.99791 45 ft 19 kts 289°
2026-04-18 10:17 -27.56950 152.99717 44 ft 0 kts 253°
2026-04-18 10:18 -27.56956 152.99703 43 ft 7 kts 223°
2026-04-18 10:18 -27.57000 152.99684 43 ft 7 kts 198°
2026-04-18 10:18 -27.57025 152.99693 44 ft 0 kts 108°
2026-04-18 10:19 -27.57028 152.99703 44 ft 16 kts 108°
2026-04-18 10:19 -27.57166 153.00201 50 ft 111 kts 108°
2026-04-18 10:19 -27.57466 153.01251 138 ft 173 kts 107°
2026-04-18 10:20 -27.57432 153.02514 828 ft 197 kts 26°
2026-04-18 10:20 -27.55990 153.02885 1437 ft 215 kts 359°
2026-04-18 10:20 -27.55160 153.01482 1624 ft 258 kts 282°
2026-04-18 10:20 -27.54819 152.99398 1637 ft 275 kts 281°
2026-04-18 10:21 -27.54629 152.97255 1486 ft 271 kts 249°
2026-04-18 10:21 -27.55904 152.96541 825 ft 179 kts 158°
2026-04-18 10:21 -27.56358 152.97505 417 ft 135 kts 105°
2026-04-18 10:21 -27.56657 152.98454 234 ft 126 kts 109°
2026-04-18 10:22 -27.56936 152.99392 61 ft 124 kts 107°
2026-04-18 10:22 -27.57169 153.00202 51 ft 105 kts 107°
2026-04-18 10:22 -27.57456 153.01227 156 ft 163 kts 102°
2026-04-18 10:22 -27.57300 153.02398 663 ft 197 kts 14°
2026-04-18 10:23 -27.55978 153.02702 1690 ft 188 kts 350°
2026-04-18 10:23 -27.55505 153.01340 1545 ft 219 kts 269°
2026-04-18 10:23 -27.55263 152.99587 1504 ft 238 kts 283°
2026-04-18 10:23 -27.55468 152.97971 935 ft 199 kts 212°
2026-04-18 10:24 -27.56471 152.98120 358 ft 129 kts 121°
2026-04-18 10:24 -27.56842 152.99072 147 ft 133 kts 107°
2026-04-18 10:24 -27.57108 153.00001 50 ft 104 kts 107°
2026-04-18 10:24 -27.57281 153.00598 60 ft 57 kts 105°
2026-04-18 10:25 -27.57361 153.00862 61 ft 24 kts 105°
2026-04-18 10:25 -27.57408 153.01031 62 ft 20 kts 107°
2026-04-18 10:25 -27.57443 153.01149 68 ft 10 kts 110°
2026-04-18 10:25 -27.57455 153.01209 69 ft 6 kts 110°
2026-04-18 10:26 -27.57472 153.01259 70 ft 10 kts 111°
2026-04-18 10:26 -27.57532 153.01290 71 ft 14 kts 186°
2026-04-18 10:26 -27.57543 153.01197 67 ft 20 kts 288°
2026-04-18 10:26 -27.57541 153.01118 67 ft 10 kts 188°
2026-04-18 10:27 -27.57621 153.01105 70 ft 0 kts 192°
2026-04-18 10:27 -27.57632 153.01102 70 ft 0 kts 192°
2026-04-18 10:28 -27.57634 153.01101 70 ft 5 kts 192°
2026-04-18 10:28 -27.57679 153.01093 72 ft 0 kts 189°
2026-04-18 10:30 -27.57636 153.01101 70 ft 13 kts 10°
2026-04-18 10:30 -27.57533 153.01121 67 ft 11 kts
2026-04-18 10:31 -27.57471 153.01131 66 ft 6 kts
2026-04-18 10:31 -27.57427 153.01133 67 ft 14 kts
2026-04-18 10:31 -27.57338 153.01103 64 ft 16 kts 287°
2026-04-18 10:31 -27.57295 153.00944 63 ft 27 kts 287°
2026-04-18 10:32 -27.57238 153.00738 60 ft 27 kts 285°
2026-04-18 10:32 -27.57184 153.00541 55 ft 27 kts 290°
2026-04-18 10:32 -27.57122 153.00333 49 ft 27 kts 288°
2026-04-18 10:32 -27.57063 153.00137 49 ft 25 kts 290°
2026-04-18 10:33 -27.57015 152.99956 45 ft 24 kts 289°
2026-04-18 10:33 -27.56964 152.99785 45 ft 20 kts 289°
2026-04-18 10:33 -27.56985 152.99690 44 ft 14 kts 198°
2026-04-18 10:33 -27.57034 152.99714 41 ft 5 kts 106°
2026-04-18 10:34 -27.57039 152.99731 43 ft 0 kts 107°
2026-04-18 10:34 -27.57129 153.00067 48 ft 93 kts 108°
2026-04-18 10:35 -27.57403 153.01017 95 ft 157 kts 107°
2026-04-18 10:35 -27.57759 153.01759 673 ft 156 kts 153°
2026-04-18 10:35 -27.58981 153.01753 1598 ft 193 kts 186°
2026-04-18 10:35 -27.60280 153.01810 3124 ft 189 kts 158°
2026-04-18 10:36 -27.61161 153.02954 4253 ft 201 kts 112°
2026-04-18 10:36 -27.61509 153.04496 5099 ft 211 kts 106°
2026-04-18 10:36 -27.61981 153.06315 5001 ft 257 kts 110°
2026-04-18 10:36 -27.62593 153.08283 5291 ft 281 kts 112°
2026-04-18 10:37 -27.63314 153.10387 5616 ft 296 kts 114°
2026-04-18 10:37 -27.64243 153.12487 5880 ft 310 kts 124°
2026-04-18 10:37 -27.65602 153.14369 5722 ft 303 kts 137°
2026-04-18 10:37 -27.67194 153.15792 5866 ft 285 kts 150°
2026-04-18 10:38 -27.68928 153.16953 5753 ft 280 kts 153°
2026-04-18 10:38 -27.70562 153.18097 5699 ft 278 kts 150°
2026-04-18 10:38 -27.72218 153.19297 5469 ft 282 kts 151°
2026-04-18 10:38 -27.73877 153.20435 5522 ft 276 kts 152°
2026-04-18 10:39 -27.75509 153.21491 5684 ft 266 kts 154°
2026-04-18 10:39 -27.77137 153.22489 5630 ft 268 kts 155°
2026-04-18 10:39 -27.78818 153.23440 5437 ft 273 kts 157°
2026-04-18 10:39 -27.80502 153.24466 5251 ft 282 kts 143°
2026-04-18 10:40 -27.81699 153.26318 4892 ft 304 kts 114°
2026-04-18 10:40 -27.82152 153.28646 5034 ft 299 kts 93°
2026-04-18 10:40 -27.82036 153.30920 5520 ft 288 kts 85°
2026-04-18 10:40 -27.81963 153.33289 4672 ft 316 kts 100°
2026-04-18 10:41 -27.82912 153.35527 4127 ft 323 kts 131°
2026-04-18 10:41 -27.84706 153.37062 3406 ft 332 kts 153°
2026-04-18 10:41 -27.86744 153.38329 3044 ft 329 kts 149°
2026-04-18 10:41 -27.88606 153.39807 2775 ft 326 kts 143°
2026-04-18 10:42 -27.90426 153.41350 2230 ft 329 kts 143°
2026-04-18 10:42 -27.92470 153.42608 1679 ft 332 kts 162°
2026-04-18 10:42 -27.94744 153.43103 949 ft 333 kts 176°
2026-04-18 10:42 -27.97004 153.43216 348 ft 322 kts 180°
2026-04-18 10:43 -27.99161 153.43234 219 ft 287 kts 178°
2026-04-18 10:43 -28.00652 153.43971 851 ft 206 kts 118°
2026-04-18 10:43 -28.00737 153.45456 691 ft 189 kts 101°
2026-04-18 10:43 -28.01781 153.46133 402 ft 200 kts 192°
2026-04-18 10:44 -28.03049 153.45796 655 ft 213 kts 200°
2026-04-18 10:44 -28.04118 153.44506 496 ft 255 kts 260°
2026-04-18 10:44 -28.02753 153.43702 294 ft 266 kts 349°
2026-04-18 10:44 -28.00857 153.43396 154 ft 290 kts 352°
2026-04-18 10:45 -27.98735 153.43452 738 ft 306 kts 21°
2026-04-18 10:45 -27.97547 153.45234 1814 ft 291 kts 115°
2026-04-18 10:45 -27.99389 153.45860 1693 ft 303 kts 188°
2026-04-18 10:45 -28.01423 153.45260 1516 ft 298 kts 202°
2026-04-18 10:46 -28.03333 153.44671 980 ft 261 kts 230°
2026-04-18 10:46 -28.02462 153.43605 260 ft 271 kts 352°
2026-04-18 10:46 -28.00332 153.43292 71 ft 326 kts 356°
2026-04-18 10:46 -27.98724 153.44746 1139 ft 325 kts 87°
2026-04-18 10:47 -27.99850 153.46793 2425 ft 261 kts 188°
2026-04-18 10:47 -28.00626 153.45422 2076 ft 246 kts 220°
2026-04-18 10:47 -28.02432 153.44939 1313 ft 287 kts 181°
2026-04-18 10:47 -28.04413 153.45010 932 ft 269 kts 223°
2026-04-18 10:48 -28.03417 153.43946 142 ft 280 kts 334°
2026-04-18 10:48 -28.01346 153.43498 89 ft 321 kts 350°
2026-04-18 10:48 -28.01641 153.43526 1635 ft 220 kts 160°
2026-04-18 10:48 -28.03275 153.43955 1478 ft 222 kts 171°
2026-04-18 10:49 -28.04733 153.44179 1375 ft 199 kts 174°
2026-04-18 10:49 -28.06065 153.44348 1140 ft 189 kts 174°
2026-04-18 10:49 -28.07324 153.44639 913 ft 179 kts 167°
2026-04-18 10:49 -28.08562 153.45305 847 ft 234 kts 153°
2026-04-18 10:50 -28.10169 153.46331 1098 ft 270 kts 152°
2026-04-18 10:50 -28.11840 153.47310 1406 ft 280 kts 135°
2026-04-18 10:50 -28.13274 153.48576 461 ft 216 kts 151°
2026-04-18 10:50 -28.14375 153.49276 277 ft 153 kts 153°
2026-04-18 10:51 -28.15243 153.49827 126 ft 127 kts 153°
2026-04-18 10:51 -28.15939 153.50252 24 ft 95 kts 162°
2026-04-18 10:51 -28.16602 153.50647 28 ft 134 kts 150°
2026-04-18 10:51 -28.17544 153.51216 480 ft 178 kts 171°
2026-04-18 10:52 -28.17833 153.50237 768 ft 221 kts 343°
2026-04-18 10:52 -28.16886 153.50466 1384 ft 194 kts 316°
2026-04-18 10:52 -28.16770 153.48992 2023 ft 145 kts 277°
2026-04-18 10:52 -28.16726 153.47883 3754 ft 175 kts 285°
2026-04-18 10:53 -28.15705 153.46963 4527 ft 207 kts 353°
2026-04-18 10:53 -28.14148 153.46845 4717 ft 213 kts 350°
2026-04-18 10:53 -28.12795 153.46539 4415 ft 206 kts 341°
2026-04-18 10:53 -28.11373 153.46150 4421 ft 207 kts 344°
2026-04-18 10:54 -28.09821 153.45788 4846 ft 254 kts 346°
2026-04-18 10:54 -28.08060 153.45249 5272 ft 276 kts 331°
2026-04-18 10:54 -28.06370 153.43872 5141 ft 309 kts 320°
2026-04-18 10:54 -28.04597 153.42376 5350 ft 323 kts 321°
2026-04-18 10:55 -28.02761 153.40946 6108 ft 316 kts 323°
2026-04-18 10:55 -28.00865 153.39543 5379 ft 347 kts 324°
2026-04-18 10:55 -27.98786 153.38026 4261 ft 345 kts 326°
2026-04-18 10:55 -27.96786 153.36598 4672 ft 339 kts 325°
2026-04-18 10:56 -27.94759 153.35154 4488 ft 350 kts 326°
2026-04-18 10:56 -27.92694 153.33679 4463 ft 352 kts 326°
2026-04-18 10:56 -27.90712 153.32099 4407 ft 351 kts 318°
2026-04-18 10:56 -27.88991 153.30182 4604 ft 325 kts 312°
2026-04-18 10:57 -27.87466 153.28389 4571 ft 315 kts 312°
2026-04-18 10:57 -27.85953 153.26610 4395 ft 312 kts 312°
2026-04-18 10:57 -27.84463 153.24873 4480 ft 301 kts 313°
2026-04-18 10:57 -27.82979 153.23248 4629 ft 295 kts 314°
2026-04-18 10:58 -27.81480 153.21682 4633 ft 297 kts 315°
2026-04-18 10:58 -27.79936 153.20100 4577 ft 299 kts 315°
2026-04-18 10:58 -27.78376 153.18555 4641 ft 298 kts 317°
2026-04-18 10:58 -27.76766 153.17078 4702 ft 298 kts 319°
2026-04-18 10:59 -27.75114 153.15670 4682 ft 300 kts 321°
2026-04-18 10:59 -27.73447 153.14237 4597 ft 301 kts 314°
2026-04-18 10:59 -27.72364 153.12240 4256 ft 305 kts 289°
2026-04-18 10:59 -27.71611 153.10007 4250 ft 301 kts 291°
2026-04-18 11:00 -27.70773 153.07887 4459 ft 294 kts 292°
2026-04-18 11:00 -27.69861 153.05817 4490 ft 295 kts 296°
2026-04-18 11:00 -27.68825 153.03789 4517 ft 295 kts 298°
2026-04-18 11:00 -27.67737 153.01804 4510 ft 298 kts 300°
2026-04-18 11:01 -27.66390 153.00026 4245 ft 311 kts 322°
2026-04-18 11:01 -27.64237 152.99203 3138 ft 342 kts 354°
2026-04-18 11:01 -27.61913 152.99851 2264 ft 322 kts 13°
2026-04-18 11:02 -27.58307 153.00563 1002 ft 235 kts
2026-04-18 11:02 -27.56767 153.00601 1046 ft 213 kts 342°
2026-04-18 11:02 -27.56027 152.99224 878 ft 206 kts 294°
2026-04-18 11:02 -27.55660 152.98012 512 ft 115 kts 246°
2026-04-18 11:03 -27.56411 152.97690 304 ft 141 kts 164°
2026-04-18 11:03 -27.56827 152.98429 237 ft 113 kts 108°
2026-04-18 11:03 -27.57068 152.99300 111 ft 124 kts 108°
2026-04-18 11:03 -27.57271 153.00013 53 ft 72 kts 107°
2026-04-18 11:04 -27.57397 153.00455 58 ft 50 kts 107°
2026-04-18 11:04 -27.57484 153.00737 59 ft 31 kts 108°
2026-04-18 11:04 -27.57486 153.00876 60 ft 14 kts 22°
2026-04-18 11:04 -27.57476 153.00956 60 ft 11 kts 108°
2026-04-18 11:05 -27.57497 153.01025 63 ft 8 kts 109°
2026-04-18 11:05 -27.57549 153.01116 66 ft 11 kts 189°
2026-04-18 11:05 -27.57615 153.01104 68 ft 8 kts 188°
2026-04-18 11:05 -27.57666 153.01095 71 ft 0 kts 191°
2026-04-18 11:06 -27.57673 153.01093 71 ft 0 kts 191°